sat.trackr.live / text

‹ back to catalog

STARLINK-36753

NORAD 67694 · 2026-025B

PAYLOAD ACTIVE UNKNOWN

§ Identity

Operator
Country
US
Launch date
2026-02-07
Launch site
AFWTR
Launch vehicle
Mass (kg)
RCS (m²)

Purposes: comms

External: N2YO · Heavens-Above · Gunter

§ Orbital elements

Epoch: 2026-09-19T12:49:05.608416Z

Period
93.91 min
Inclination
97.2847°
Eccentricity
0.0000883
Mean motion
15.33458540 rev/d
Perigee alt
464.9 km
Apogee alt
466.1 km
Semi-major
6,843.6 km
B*
6.0068e-4
RAAN
12.3838°
Arg perigee
89.3005°
Mean anomaly
270.8339°
Rev number
3,572

§ Raw data

STARLINK-367531 67694U 26025B   26262.53409269  .00019375  00000+0  60068-3 0  99902 67694  97.2847  12.3838 0000883  89.3005 270.8339 15.33458540 35727

JSON: /api/v1/satellites/67694 · /tle

For live sub-satellite position, see the globe view (requires WebGL).

§ Visibility from observer

Set your observer location to see the next 7 days of passes ≥ 10°. The values pass through the URL so the page stays shareable.

No JS? Fill the form by hand. The geolocation button needs JavaScript.